Miscellaneous Local Product
Issued by NWS Hastings, NE

Home | Current Version | Previous Version | Text Only | Print | Product List | Glossary On
Versions: 1 2 3 4 5 6 7 8 9 10 11 12 13 14 15 16 17 18 19 20 21 22 23 24 25 26 27 28 29 30 31 32 33 34 35 36 37 38 39 40 41 42 43 44 45 46 47 48 49 50
000
AXUS43 KGID 010302
MISGRI

GID CWA HOURLY WEATHER ROUNDUP
NATIONAL WEATHER SERVICE HASTINGS NE
1000 PM CDT SUN APR 30 2017

NOTE: "FAIR" INDICATES FEW OR NO CLOUDS BELOW 12,000 FEET WITH NO
SIGNIFICANT WEATHER AND/OR OBSTRUCTIONS TO VISIBILITY.

...SOUTH CENTRAL NEBRASKA...

CITY           SKY/WX    TMP DP  RH WIND       PRES   REMARKS
GRAND ISLAND   LGT SNOW  33  33 100 N18       29.60F FOG     WCI  22
HASTINGS       MIX PCPN  34  32  92 N24       29.60S WCI  21
KEARNEY        CLOUDY    34  30  86 N23G29    29.65R WCI  22
ORD            LGT SNOW  33  31  92 N12       29.68R FOG     WCI  24
YORK           LGT RAIN  36  36 100 N14G21    29.56S WCI  27
AURORA         LGT RAIN  34  34  99 N17G24    29.58S WCI  23
LEXINGTON      LGT RAIN  35  32  90 N21       29.71R WCI  23
HOLDREGE       LGT RAIN  33  32  95 N18G25    29.66R WCI  22
HEBRON         CLOUDY    37  37  97 N16G23    29.53R FOG     WCI  28

...NEBRASKA PANHANDLE...

CITY           SKY/WX    TMP DP  RH WIND       PRES   REMARKS
CHADRON        CLOUDY    44  27  51 CALM      29.85R
ALLIANCE       CLOUDY    41  25  53 N8        29.82R
SCOTTSBLUFF    CLOUDY    44  30  57 NE12      29.83S
SIDNEY         CLOUDY    45  24  43 NE9       29.82R

...WESTERN AND NORTH CENTRAL NEBRASKA...

CITY           SKY/WX    TMP DP  RH WIND       PRES   REMARKS
VALENTINE      CLOUDY    47  17  30 N14       29.77F
AINSWORTH      CLOUDY    40  28  63 N6        29.71F
ONEILL         LGT SNOW  33  32  94 N14       29.71S WCI  24
BROKEN BOW     LGT SNOW  34  33  96 N29G38    29.67S FOG     WCI  20
IMPERIAL       CLOUDY    45  22  40 N18       29.76S
NORTH PLATTE   CLOUDY    45  24  43 N12G22    29.71F
MCCOOK         CLOUDY    37  31  78 N18       29.72R WCI  27

...EASTERN NEBRASKA...

CITY           SKY/WX    TMP DP  RH WIND       PRES   REMARKS
NORFOLK        FLURRIES  33  31  92 N13       29.61F WCI  24
SO SIOUX CITY  LGT RAIN  39  38  96 N13       29.59R WCI  31
TEKAMAH        CLOUDY    42  38  85 N16       29.54F
COLUMBUS       CLOUDY    36  30  80 N14       29.57F WCI  27
ALBION         LGT SNOW  35  32  90 N12       29.63F WCI  26
OMAHA EPPLEY   CLOUDY    43  38  82 N13G21    29.50F
OFFUTT AFB     CLOUDY    43  40  89 N8G21     29.49S
MILLARD        CLOUDY    44  42  91 N8        29.51S
LINCOLN        CLOUDY    41  40  96 N16       29.51F
NEBRASKA CITY  DRIZZLE   43  43 100 NE12      29.45F
BEATRICE       CLOUDY    42  42  97 N16G23    29.47R FOG
FALLS CITY     LGT RAIN  46  42  86 S3        29.46S

...NORTHERN KANSAS...

CITY           SKY/WX    TMP DP  RH WIND       PRES   REMARKS
GOODLAND       CLOUDY    33  30  88 W7        29.76S WCI  27
HILL CITY      FLURRIES  35  34  96 NW23G37   29.69S WCI  23
PHILLIPSBURG   DRIZZLE   36  36 100 NW21G31   29.65S WCI  24
HAYS           LGT RAIN  35  33  92 N26G35    29.63S WCI  22
RUSSELL        MIX PCPN  36  34  92 NW23G36   29.60R WCI  24
CONCORDIA      CLOUDY    38  38 100 N22G29    29.50S WCI  27
SALINA         LGT RAIN  41  38  89 NW29G38   29.49R
TOPEKA         CLOUDY    46  43  89 S6        29.45S



USA.gov is the U.S. government's official web portal to all federal, state and local government web resources and services.